Weather History for Saguache, CO

Change the Weather History Date:

Tuesday, May 6, 2014

  Actual Average (KALS) Record (KALS)
Temperature  
Mean Temperature 55 °F 48 °F  
Max Temperature 69 °F 66 °F 80 °F (2009)
Min Temperature 41 °F 31 °F 17 °F (1950)
Degree Days  
Heating Degree Days 10 17  
Month to date heating degree days 105  
Since 1 July heating degree days 8105  
Cooling Degree Days 0 0  
Month to date cooling degree days 0  
Year to date cooling degree days 0  
Growing Degree Days 5 (Base 50)    
Moisture  
Dew Point 11 °F    
Average Humidity 18    
Maximum Humidity 33    
Minimum Humidity 8    
Precipitation  
Precipitation 0.00 in 0.02 in 0.71 in (1973)
Month to date precipitation 0.12  
Year to date precipitation 1.76  
Snow  
Snow 0.00 in 0.10 in 8.40 in (1973)
Month to date snowfall 0.4  
Since 1 July snowfall 27.1  
Snow Depth -    
Sea Level Pressure  
Sea Level Pressure 29.84 in    
Wind  
Wind Speed 9 mph (WSW)    
Max Wind Speed 23 mph    
Max Gust Speed 33 mph    
Visibility 10 miles    
Events      
T = Trace of Precipitation, MM = Missing Value Source: NWS Daily Summary

Daily Weather History Graph

Daily Weather History Graph

Search for Another Location

Airport:

Trip Planner

Search our weather history database for the weather conditions in past years. The results will help you decide how hot, cold, wet, or windy it might be!

Date:

Astronomy

May. 06, 2014 Rise Set
Actual Time 6:02 AM MDT 8:00 PM MDT
Civil Twilight 5:33 AM MDT 8:29 PM MDT
Nautical Twilight 4:58 AM MDT 9:04 PM MDT
Astronomical Twilight 4:21 AM MDT 9:42 PM MDT
Moon 12:20 PM MDT (5/6) 1:22 AM MDT (5/6)
Length of Visible Light 14h 55m
Length of Day
13h 57m
Waxing Crescent, 46% of the Moon is Illuminated
May 6
Waxing Crescent
May 6
First Quarter
May 14
Full
May 21
Last Quarter
May 28
New

Hourly Weather History & Observations

Time (MDT) Temp. Windchill Dew Point Humidity Pressure Visibility Wind Dir Wind Speed Gust Speed Precip Events Conditions
12:15 AM 44.6 °F 39.2 °F 10.4 °F 25% 29.97 in 10.0 mi NNW 10.4 mph - N/A   Clear
12:34 AM 42.8 °F 38.6 °F 8.6 °F 25% 29.97 in 10.0 mi NNW 6.9 mph - N/A   Clear
12:55 AM 44.6 °F 39.7 °F 8.6 °F 23% 29.96 in 10.0 mi NNW 9.2 mph - N/A   Clear
1:15 AM 42.8 °F 39.3 °F 8.6 °F 25% 29.95 in 10.0 mi NW 5.8 mph - N/A   Clear
1:35 AM 42.8 °F 41.1 °F 8.6 °F 25% 29.95 in 10.0 mi WNW 3.5 mph - N/A   Clear
5:55 AM 41.0 °F 39.0 °F 14.0 °F 33% 29.92 in 10.0 mi NNE 3.5 mph - N/A   Clear
6:15 AM 41.0 °F 38.0 °F 14.0 °F 33% 29.92 in 10.0 mi NNE 4.6 mph - N/A   Clear
6:35 AM 41.0 °F - 14.0 °F 33% 29.92 in 10.0 mi Calm Calm - N/A   Clear
6:55 AM 42.8 °F - 14.0 °F 31% 29.92 in 10.0 mi Calm Calm - N/A   Clear
7:15 AM 44.6 °F - 14.0 °F 29% 29.92 in 10.0 mi Calm Calm - N/A   Clear
8:15 AM 50.0 °F - 17.6 °F 28% 29.92 in 10.0 mi Calm Calm - N/A   Clear
8:35 AM 50.0 °F - 19.4 °F 30% 29.92 in 10.0 mi Calm Calm - N/A   Clear
8:55 AM 53.6 °F - 19.4 °F 26% 29.91 in 10.0 mi Calm Calm - N/A   Clear
9:15 AM 51.8 °F - 17.6 °F 26% 29.91 in 10.0 mi WNW 3.5 mph - N/A   Clear
9:55 AM 55.4 °F - 15.8 °F 21% 29.90 in 10.0 mi Calm Calm - N/A   Clear
10:15 AM 59.0 °F - 17.6 °F 20% 29.90 in 10.0 mi SSE 5.8 mph - N/A   Clear
10:35 AM 59.0 °F - 17.6 °F 20% 29.88 in 10.0 mi South 3.5 mph - N/A   Clear
10:55 AM 60.8 °F - 15.8 °F 17% 29.88 in 10.0 mi SSE 10.4 mph - N/A   Clear
11:15 AM 60.8 °F - 17.6 °F 19% 29.86 in 10.0 mi ESE 4.6 mph 17.3 mph N/A   Clear
11:35 AM 64.4 °F - 17.6 °F 16% 29.86 in 10.0 mi South 15.0 mph 19.6 mph N/A   Clear
11:55 AM 62.6 °F - 15.8 °F 16% 29.85 in 10.0 mi SSW 10.4 mph 17.3 mph N/A   Clear
12:15 PM 64.4 °F - 15.8 °F 15% 29.84 in 10.0 mi SSW 6.9 mph 23.0 mph N/A   Scattered Clouds
12:35 PM 66.2 °F - 14.0 °F 13% 29.81 in 10.0 mi SW 16.1 mph 27.6 mph N/A   Scattered Clouds
12:55 PM 66.2 °F - 14.0 °F 13% 29.80 in 10.0 mi SSW 18.4 mph 26.5 mph N/A   Clear
1:15 PM 68.0 °F - 12.2 °F 12% 29.79 in 10.0 mi SSW 19.6 mph 27.6 mph N/A   Scattered Clouds
1:35 PM 68.0 °F - 8.6 °F 10% 29.79 in 10.0 mi SSW 12.7 mph 29.9 mph N/A   Scattered Clouds
1:55 PM 69.8 °F - 8.6 °F 9% 29.78 in 10.0 mi WSW 20.7 mph 29.9 mph N/A   Clear
2:14 PM 69.8 °F - 5.0 °F 8% 29.77 in 10.0 mi WSW 15.0 mph 20.7 mph N/A   Clear
2:55 PM 66.2 °F - 6.8 °F 10% 29.77 in 10.0 mi WSW 9.2 mph 25.3 mph N/A   Clear
3:14 PM 66.2 °F - 8.6 °F 11% 29.76 in 10.0 mi SSW 21.9 mph 33.4 mph N/A   Clear
3:34 PM 68.0 °F - 8.6 °F 10% 29.76 in 10.0 mi South 20.7 mph 31.1 mph N/A   Clear
3:55 PM 68.0 °F - 6.8 °F 9% 29.75 in 10.0 mi SSW 20.7 mph 31.1 mph N/A   Clear
4:15 PM 66.2 °F - 5.0 °F 9% 29.75 in 10.0 mi SW 19.6 mph 28.8 mph N/A   Clear
4:34 PM 66.2 °F - 5.0 °F 9% 29.75 in 10.0 mi SW 21.9 mph 32.2 mph N/A   Clear
4:55 PM 64.4 °F - 5.0 °F 10% 29.75 in 10.0 mi SW 18.4 mph 27.6 mph N/A   Clear
5:15 PM 64.4 °F - 5.0 °F 10% 29.76 in 10.0 mi SW 23.0 mph 29.9 mph N/A   Clear
5:35 PM 64.4 °F - 5.0 °F 10% 29.76 in 10.0 mi SW 15.0 mph 26.5 mph N/A   Clear
5:55 PM 62.6 °F - 6.8 °F 11% 29.76 in 10.0 mi SW 21.9 mph 31.1 mph N/A   Clear
6:15 PM 62.6 °F - 8.6 °F 12% 29.78 in 10.0 mi West 18.4 mph 23.0 mph N/A   Clear
6:34 PM 60.8 °F - 8.6 °F 13% 29.78 in 10.0 mi West 19.6 mph 27.6 mph N/A   Clear
6:54 PM 59.0 °F - 8.6 °F 14% 29.79 in 10.0 mi West 16.1 mph 23.0 mph N/A   Clear
7:15 PM 59.0 °F - 6.8 °F 13% 29.80 in 10.0 mi West 19.6 mph 28.8 mph N/A   Clear
7:34 PM 57.2 °F - 5.0 °F 12% 29.80 in 10.0 mi West 13.8 mph - N/A   Clear
7:55 PM 55.4 °F - 8.6 °F 15% 29.79 in 10.0 mi West 5.8 mph - N/A   Clear
8:15 PM 51.8 °F - 8.6 °F 18% 29.80 in 10.0 mi Calm Calm - N/A   Clear
8:35 PM 50.0 °F - 8.6 °F 19% 29.80 in 10.0 mi WNW 3.5 mph - N/A   Clear
8:55 PM 51.8 °F - 8.6 °F 18% 29.80 in 10.0 mi Calm Calm - N/A   Clear
9:15 PM 44.6 °F 42.2 °F 5.0 °F 20% 29.81 in 10.0 mi NE 4.6 mph - N/A   Clear
9:35 PM 44.6 °F 43.1 °F 5.0 °F 20% 29.81 in 10.0 mi NNE 3.5 mph - N/A   Clear
9:55 PM 44.6 °F 39.2 °F 5.0 °F 20% 29.82 in 10.0 mi NNE 10.4 mph - N/A   Clear
10:15 PM 44.6 °F 39.2 °F 6.8 °F 21% 29.83 in 10.0 mi WNW 10.4 mph - N/A   Clear
10:34 PM 48.2 °F - 8.6 °F 20% 29.83 in 10.0 mi WNW 12.7 mph - N/A   Clear
10:55 PM 50.0 °F - 10.4 °F 20% 29.83 in 10.0 mi NW 10.4 mph - N/A   Scattered Clouds
11:15 PM 50.0 °F - 8.6 °F 19% 29.83 in 10.0 mi NW 6.9 mph - N/A   Clear
11:34 PM 46.4 °F 45.2 °F 12.2 °F 25% 29.83 in 10.0 mi NW 3.5 mph - N/A   Clear
11:54 PM 46.4 °F - 10.4 °F 23% 29.82 in 10.0 mi Calm Calm - N/A   Clear